TimeCDT,TemperatureF,Dew PointF,Humidity,Sea Level PressureIn,VisibilityMPH,Wind Direction,Wind SpeedMPH,Gust SpeedMPH,PrecipitationIn,Events,Conditions,WindDirDegrees,DateUTC
12:53 AM,73.0,70.0,90,29.99,10.0,South,6.9,-,N/A,,Clear,170,2013-08-22 05:53:00
1:53 AM,72.0,69.1,91,29.99,10.0,South,6.9,-,N/A,,Clear,170,2013-08-22 06:53:00
2:53 AM,70.0,68.0,93,29.98,9.0,SSE,5.8,-,N/A,,Clear,160,2013-08-22 07:53:00
3:53 AM,71.1,68.0,90,30.01,9.0,Calm,Calm,-,N/A,,Clear,0,2013-08-22 08:53:00
4:53 AM,71.1,68.0,90,30.03,9.0,North,3.5,-,N/A,,Clear,360,2013-08-22 09:53:00
5:53 AM,70.0,68.0,93,30.04,8.0,South,4.6,-,N/A,,Clear,190,2013-08-22 10:53:00
6:53 AM,70.0,68.0,93,30.05,8.0,South,4.6,-,N/A,,Clear,170,2013-08-22 11:53:00
7:53 AM,70.0,69.1,97,30.04,5.0,South,3.5,-,N/A,,Clear,170,2013-08-22 12:53:00
8:53 AM,71.1,69.1,93,30.03,4.0,Calm,Calm,-,N/A,,Clear,0,2013-08-22 13:53:00
9:53 AM,73.9,70.0,87,30.04,8.0,Calm,Calm,-,N/A,,Clear,0,2013-08-22 14:53:00
10:53 AM,75.0,71.1,87,30.03,8.0,SSE,5.8,-,N/A,,Clear,160,2013-08-22 15:53:00
11:53 AM,78.1,71.1,79,30.05,10.0,Calm,Calm,-,N/A,,Clear,0,2013-08-22 16:53:00
12:53 PM,80.1,72.0,76,30.04,10.0,East,3.5,-,N/A,,Clear,90,2013-08-22 17:53:00
1:53 PM,82.9,73.9,74,30.03,10.0,East,4.6,-,N/A,,Clear,100,2013-08-22 18:53:00
2:53 PM,82.9,73.0,72,30.03,10.0,ESE,3.5,-,N/A,,Clear,120,2013-08-22 19:53:00
3:53 PM,84.0,73.9,72,30.02,10.0,ESE,3.5,-,N/A,,Clear,120,2013-08-22 20:53:00
4:53 PM,84.9,75.0,72,30.01,10.0,SSE,3.5,-,N/A,,Clear,160,2013-08-22 21:53:00
5:53 PM,84.0,75.0,74,30.00,10.0,ESE,3.5,-,N/A,,Clear,110,2013-08-22 22:53:00
6:53 PM,82.0,75.0,79,30.00,10.0,East,3.5,-,N/A,,Clear,90,2013-08-22 23:53:00
7:53 PM,78.1,75.0,90,29.99,10.0,East,3.5,-,N/A,,Clear,90,2013-08-23 00:53:00
8:53 PM,75.9,73.0,91,30.00,10.0,East,4.6,-,N/A,,Clear,100,2013-08-23 01:53:00
9:53 PM,75.0,73.0,94,30.01,10.0,Calm,Calm,-,N/A,,Clear,0,2013-08-23 02:53:00
10:53 PM,75.0,73.0,94,30.02,8.0,Calm,Calm,-,N/A,,Clear,0,2013-08-23 03:53:00
11:53 PM,75.0,73.0,94,30.03,8.0,Calm,Calm,-,N/A,,Clear,0,2013-08-23 04:53:00